Weather History for Toronto Pearson, ON

Change the Weather History Date:

Wednesday, November 7, 2012

  Actual Average Record
Temperature  
Mean Temperature 36 °F -  
Max Temperature 43 °F 42 °F 66 °F (1996)
Min Temperature 30 °F 28 °F 19 °F (2002)
Degree Days  
Heating Degree Days 28    
Moisture  
Dew Point 23 °F    
Average Humidity 57    
Maximum Humidity 75    
Minimum Humidity 39    
Precipitation  
Precipitation 0.00 in 0.09 in - ()
Sea Level Pressure  
Sea Level Pressure 30.12 in    
Wind  
Wind Speed 7 mph ()    
Max Wind Speed 12 mph    
Max Gust Speed 17 mph    
Visibility 15.0 miles    
Events      
Averages and records for this station are not official NWS values.
T = Trace of Precipitation, MM = Missing Value Source: Averaged Metar Reports

Daily Weather History Graph

Daily Weather History Graph

Search for Another Location

Airport:

Trip Planner

Search our weather history database for the weather conditions in past years. The results will help you decide how hot, cold, wet, or windy it might be!

Date:

Astronomy

Nov. 07, 2012 Rise Set
Actual Time 7:02 AM EST 5:01 PM EST
Civil Twilight 6:32 AM EST 5:31 PM EST
Nautical Twilight 5:58 AM EST 6:05 PM EST
Astronomical Twilight 5:24 AM EST 6:39 PM EST
Moon No Moon Rise 1:21 PM EST (11/7)
Length of Visible Light 10h 59m
Length of Day
9h 58m
Last Quarter, 43% of the Moon is Illuminated
Nov 7
Last Quarter
Nov 13
New
Nov 20
First Quarter
Nov 28
Full
Dec 6
Last Quarter

Hourly Weather History & Observations

Time (EST) Temp. Windchill Dew Point Humidity Pressure Visibility Wind Dir Wind Speed Gust Speed Precip Events Conditions
12:00 AM 33.8 °F 27.0 °F 24.8 °F 70% 30.10 in 15.0 mi NE 8.1 mph - N/A   Scattered Clouds
1:00 AM 33 °F - 25 °F 62% 30.09 in 15 mi NE 6.9 mph - -   Scattered Clouds
1:00 AM 33.8 °F 28.6 °F 24.8 °F 70% 30.09 in 15.0 mi NE 5.8 mph - N/A   Partly Cloudy
2:00 AM 32.0 °F 24.8 °F 24.8 °F 75% 30.09 in 15.0 mi NE 8.1 mph - N/A   Partly Cloudy
3:00 AM 35.6 °F 27.5 °F 24.8 °F 65% 30.11 in 15.0 mi ENE 11.5 mph - N/A   Mostly Cloudy
4:00 AM 35.6 °F 27.5 °F 24.8 °F 65% 30.12 in 15.0 mi ENE 11.5 mph - N/A   Mostly Cloudy
5:00 AM 35.6 °F 28.0 °F 23.0 °F 60% 30.11 in 15.0 mi NE 10.4 mph - N/A   Mostly Cloudy
6:00 AM 35.6 °F 28.0 °F 21.2 °F 56% 30.09 in 15.0 mi NE 10.4 mph - N/A   Mostly Cloudy
7:00 AM 35 °F - 21 °F 45% 30.11 in 15 mi ENE 9.2 mph - -   Mostly Cloudy
7:00 AM 33.8 °F 26.4 °F 21.2 °F 60% 30.11 in 15.0 mi ENE 9.2 mph - N/A   Mostly Cloudy
8:00 AM 33.8 °F 25.3 °F 21.2 °F 60% 30.13 in 15.0 mi ENE 11.5 mph 17.3 mph N/A   Overcast
9:00 AM 35.6 °F 27.5 °F 19.4 °F 52% 30.14 in 15.0 mi NE 11.5 mph - N/A   Mostly Cloudy
10:00 AM 35.6 °F 27.5 °F 19.4 °F 52% 30.16 in 15.0 mi ENE 11.5 mph - N/A   Mostly Cloudy
11:00 AM 39.2 °F 33.6 °F 21.2 °F 49% 30.15 in 15.0 mi ENE 8.1 mph - N/A   Mostly Cloudy
12:00 PM 41.0 °F 34.7 °F 24.8 °F 53% 30.13 in 15.0 mi ENE 10.4 mph - N/A   Scattered Clouds
1:00 PM 42 °F - 25 °F 39% 30.11 in 15 mi ENE 6.9 mph - -   Mostly Cloudy
1:00 PM 42.8 °F 39.3 °F 24.8 °F 49% 30.11 in 15.0 mi East 5.8 mph - N/A   Mostly Cloudy
2:00 PM 41.0 °F 39.0 °F 24.8 °F 53% 30.10 in 15.0 mi East 3.5 mph - N/A   Mostly Cloudy
3:00 PM 42.8 °F 41.1 °F 24.8 °F 49% 30.10 in 15.0 mi NE 3.5 mph - N/A   Mostly Cloudy
4:00 PM 41.0 °F 39.0 °F 28.4 °F 61% 30.10 in 15.0 mi East 3.5 mph - N/A   Mostly Cloudy
5:00 PM 39.2 °F - 24.8 °F 56% 30.12 in 15.0 mi ENE 2.3 mph - N/A   Mostly Cloudy
6:00 PM 37.4 °F 32.8 °F 21.2 °F 52% 30.13 in 15.0 mi NE 5.8 mph - N/A   Scattered Clouds
6:36 PM 35.6 °F 30.7 °F - N/A% - 15.0 mi NE 5.8 mph - N/A   Partly Cloudy
7:00 PM 36 °F - 21 °F 41% 30.14 in 15 mi NE 5.8 mph - -   Clear
7:00 PM 35.6 °F 30.7 °F 21.2 °F 56% 30.14 in 15.0 mi NE 5.8 mph - N/A   Partly Cloudy
8:00 PM 33.8 °F 28.6 °F 21.2 °F 60% 30.14 in 15.0 mi NNE 5.8 mph - N/A   Partly Cloudy
9:00 PM 32.0 °F 26.4 °F 21.2 °F 64% 30.16 in 15.0 mi NNE 5.8 mph - N/A   Partly Cloudy
10:00 PM 30.2 °F 24.3 °F 21.2 °F 69% 30.16 in 15.0 mi North 5.8 mph - N/A   Clear
11:00 PM 32.0 °F 25.6 °F 21.2 °F 64% 30.15 in 15.0 mi NNE 6.9 mph - N/A   Clear